| time (UTC) | temp F | wind direction | speed knots | gust knots | rain 1hr in | rain 24hr in | rain mn in | humidity % | barometer mb |
| 20260505023016 | 58 | 0 | 4.3 | 13.0 | 0.00 | 0.00 | 0.00 | 40 | 1011.5 |
| 20260505020016 | 59 | 0 | 5.2 | 11.3 | 0.00 | 0.00 | 0.00 | 38 | 1011.3 |
| 20260505013016 | 60 | 0 | 5.2 | 16.5 | 0.00 | 0.00 | 0.00 | 35 | 1011.2 |
| 20260505010016 | 61 | 0 | 5.2 | 13.9 | 0.00 | 0.00 | 0.00 | 33 | 1010.8 |
| 20260505003015 | 63 | 0 | 6.1 | 13.0 | 0.00 | 0.00 | 0.00 | 31 | 1010.1 |
| 20260505000015 | 64 | 0 | 7.8 | 18.2 | 0.00 | 0.00 | 0.00 | 30 | 1009.1 |
| 20260504233015 | 66 | 0 | 7.8 | 18.2 | 0.00 | 0.00 | 0.00 | 28 | 1008.6 |
| 20260504230015 | 68 | 0 | 7.8 | 21.7 | 0.00 | 0.00 | 0.00 | 26 | 1008.1 |
| 20260504223015 | 69 | 0 | 8.7 | 20.0 | 0.00 | 0.00 | 0.00 | 23 | 1007.6 |
| 20260504220015 | 72 | 0 | 6.1 | 17.4 | 0.00 | 0.00 | 0.00 | 18 | 1007.6 |
| 20260504213015 | 73 | 0 | 7.0 | 18.2 | 0.00 | 0.00 | 0.00 | 15 | 1007.5 |
| 20260504210015 | 74 | 0 | 6.1 | 18.2 | 0.00 | 0.00 | 0.00 | 15 | 1007.5 |
| 20260504203015 | 73 | 0 | 7.0 | 18.2 | 0.00 | 0.00 | 0.00 | 14 | 1007.6 |
| 20260504200015 | 73 | 0 | 7.0 | 19.1 | 0.00 | 0.00 | 0.00 | 13 | 1007.7 |
| 20260504193015 | 73 | 0 | 7.8 | 18.2 | 0.00 | 0.00 | 0.00 | 13 | 1007.7 |
| 20260504190015 | 73 | 0 | 7.0 | 18.2 | 0.00 | 0.00 | 0.00 | 11 | 1007.8 |
| 20260504183017 | 72 | 0 | 7.8 | 23.5 | 0.00 | 0.00 | 0.00 | 13 | 1008.2 |
| 20260504180017 | 71 | 0 | 7.8 | 21.7 | 0.00 | 0.00 | 0.00 | 14 | 1008.4 |
| 20260504173017 | 70 | 0 | 7.8 | 20.0 | 0.00 | 0.00 | 0.00 | 15 | 1008.5 |
| 20260504050016 | 38 | 0.0 | 0.9 | 0.00 | 0.00 | 0.00 | 48 | 1011.3 | |
| 20260504043016 | 39 | 0.0 | 0.9 | 0.00 | 0.00 | 0.00 | 47 | 1011.2 | |
| 20260504040016 | 40 | 0.0 | 1.7 | 0.00 | 0.00 | 0.00 | 47 | 1010.9 | |
| 20260504033016 | 41 | 0 | 0.9 | 3.5 | 0.00 | 0.00 | 0.00 | 45 | 1010.8 |
| 20260504030036 | 42 | 0 | 0.9 | 4.3 | 0.00 | 0.00 | 0.00 | 44 | 1010.8 |